Location: Shenandoah County Park
(38.9356°N, 78.4524°W)
Time: 03:16:55
(UTC-05:00)

SR - All Passes

Search period start: 09 December 2023 00:00
Search period end: 19 December 2023 00:00
Orbit: 571 x 872 km, 66.7° (Epoch: 07 December)

Date Brightness Start Highest point End Pass type
(mag) Time Alt. Az. Time Alt. Az. Time Alt. Az.
09 Dec - 09:51:46 10° S 09:57:00 49° ESE 10:02:34 10° NE daylight
09 Dec - 11:34:31 10° WSW 11:39:15 27° NW 11:44:11 10° N daylight
09 Dec - 18:33:50 10° N 18:38:51 30° NE 18:43:36 10° ESE visible
09 Dec - 20:15:39 10° NW 20:20:57 41° WSW 20:25:52 10° S visible
10 Dec - 09:01:32 10° SSE 09:05:48 24° ESE 09:10:15 10° NE daylight
10 Dec - 10:42:00 10° SW 10:47:22 50° NW 10:53:03 10° NNE daylight
10 Dec - 12:29:48 10° NW 12:30:49 10° NW 12:31:50 10° NNW daylight
10 Dec - 17:43:03 10° N 17:46:46 17° NE 17:50:21 10° E visible
10 Dec - 19:23:49 10° NNW 19:29:33 86° WSW 19:34:52 10° SSE visible
10 Dec - 21:10:07 10° W 21:10:29 10° W 21:10:51 10° WSW visible
11 Dec - 08:13:48 10° ESE 08:14:47 10° E 08:15:46 10° E daylight
11 Dec - 09:50:14 10° SSW 09:55:44 84° ESE 10:01:36 10° NNE daylight
11 Dec - 11:34:41 10° W 11:38:30 18° NW 11:42:25 10° N daylight
11 Dec - 18:32:22 10° NNW 18:37:55 48° NE 18:43:05 10° SE visible
11 Dec - 20:15:09 10° NW 20:19:29 23° WSW 20:23:35 10° SSW visible
12 Dec - 08:59:14 10° S 09:04:20 41° ESE 09:09:45 10° NE daylight
12 Dec - 10:41:28 10° WSW 10:46:26 31° NW 10:51:36 10° N daylight
12 Dec - 17:41:15 10° N 17:46:01 26° NE 17:50:32 10° ESE visible
12 Dec - 19:22:49 10° NW 19:28:17 49° WSW 19:33:19 10° S visible
13 Dec - 08:09:17 10° SSE 08:13:10 20° ESE 08:17:12 10° ENE daylight
13 Dec - 09:49:08 10° SW 09:54:36 59° WNW 10:00:23 10° NNE daylight
13 Dec - 11:35:43 10° WNW 11:37:52 12° NW 11:40:03 10° NNW daylight
13 Dec - 16:50:39 10° N 16:53:52 15° NE 16:56:59 10° ENE daylight
13 Dec - 18:31:05 10° NNW 18:36:50 81° ENE 18:42:07 10° SSE visible
13 Dec - 20:15:38 10° WNW 20:17:53 13° W 20:20:04 10° SW visible
14 Dec - 08:57:32 10° SSW 09:03:00 72° ESE 09:08:51 10° NNE daylight
14 Dec - 10:41:25 10° W 10:45:37 21° NW 10:49:55 10° N daylight
14 Dec - 17:39:43 10° NNW 17:45:07 41° NE 17:50:09 10° SE visible
14 Dec - 19:22:09 10° NW 19:26:50 28° WSW 19:31:13 10° SSW visible
15 Dec - 08:06:44 10° S 08:11:40 35° ESE 08:16:52 10° NE daylight
15 Dec - 09:48:26 10° WSW 09:53:35 36° NW 09:58:59 10° NNE daylight
15 Dec - 16:48:41 10° N 16:53:09 23° NE 16:57:23 10° E daylight
15 Dec - 18:30:01 10° NW 18:35:34 59° WSW 18:40:42 10° SSE visible
16 Dec - 07:17:09 10° SE 07:20:32 17° ESE 07:24:02 10° ENE daylight
16 Dec - 08:56:16 10° SW 09:01:49 69° WNW 09:07:41 10° NNE daylight
16 Dec - 10:42:05 10° WNW 10:44:55 14° NW 10:47:50 10° N daylight
16 Dec - 15:58:19 10° NNE 16:00:55 13° NE 16:03:28 10° ENE daylight
16 Dec - 17:38:22 10° NNW 17:44:03 69° ENE 17:49:18 10° SE visible
16 Dec - 19:22:11 10° WNW 19:25:16 15° WSW 19:28:13 10° SW visible
17 Dec - 08:04:51 10° SSW 08:10:17 60° ESE 08:16:02 10° NE daylight
17 Dec - 09:48:13 10° W 09:52:43 24° NW 09:57:22 10° N daylight
17 Dec - 16:47:04 10° NNW 16:52:16 35° NE 16:57:08 10° ESE daylight
17 Dec - 18:29:13 10° NW 18:34:10 33° WSW 18:38:46 10° S visible
18 Dec - 07:14:16 10° SSE 07:18:59 29° ESE 07:23:55 10° NE daylight
18 Dec - 08:55:27 10° SW 09:00:45 42° NW 09:06:19 10° NNE daylight
18 Dec - 15:56:08 10° N 16:00:14 20° NE 16:04:09 10° E daylight
18 Dec - 17:37:12 10° NNW 17:42:50 70° WSW 17:48:00 10° SSE visible
